Simultaneous Nadir Overpasses (SNOs) Predictions

Prediction of SNOs between GOES-16 and AQUA Satellite Orbit:

Table of predicted SNOs for the next 14.0 days since TLE Epoch: 8/3/2024
Index Date Time (GOES-16) GOES-16 Lat,Lon AQUA Lat,Lon Distance(km) Time Diff (sec)
1 08/03/2024 06:56:52 0.05, -75.20 -0.83, -71.18 457.72 80
2 08/03/2024 19:17:02 -0.05, -75.20 -0.26, -76.05 96.98 80
3 08/05/2024 19:02:47 -0.05, -75.22 0.68, -71.92 375.19 80
4 08/06/2024 07:22:49 0.05, -75.22 0.35, -76.77 175.96 80
5 08/08/2024 07:03:12 0.05, -75.24 -0.53, -72.62 297.78 80
6 08/08/2024 19:23:21 -0.04, -75.25 -0.51, -77.50 256.15 80
7 08/10/2024 19:09:04 -0.04, -75.28 0.38, -73.36 218.81 80
8 08/11/2024 07:29:04 0.04, -75.28 0.68, -78.19 331.70 80
9 08/13/2024 07:09:25 0.04, -75.31 -0.23, -74.04 143.93 80
10 08/13/2024 19:29:34 -0.03, -75.32 -0.83, -78.92 409.61 80
11 08/15/2024 19:15:14 -0.02, -75.35 0.09, -74.76 66.59 80
12 08/16/2024 07:35:15 0.01, -75.36 0.94, -79.61 483.71 80
